When you browse on this site, cookies collect data to enhance your experience and personalize the content and advertising you see.
Visit our Privacy Policy to learn more. By continuing to use the site, you agree to this use of cookies and data.
  • In Slovakia
  • List of Countries
  • For 7 days
  • Water Temperature
  • Satellite Maps
  • Weather Map
  • Weather Widgets
  • user-avatar
    Login

    Hourly Weather Varna

    Today, 24 March, Sunday

    Time Temperature Precipitation Wind Pressure Humidity
    00:00 +6°C° 0 mm 1 mps 752 mmHg 63%
    01:00 +6°C° 0 mm 1 mps 752 mmHg 63%
    02:00 +5°C° 0 mm 1 mps 752 mmHg 62%
    03:00 +4°C° 0 mm 2 mps 752 mmHg 59%
    04:00 +4°C° 0 mm 2 mps 752 mmHg 56%
    05:00 +3°C° 0 mm 3 mps 751 mmHg 54%
    06:00 +3°C° 0 mm 3 mps 752 mmHg 52%
    07:00 +4°C° 0 mm 3 mps 752 mmHg 50%
    08:00 +5°C° 0 mm 3 mps 752 mmHg 47%
    09:00 +8°C° 0 mm 3 mps 752 mmHg 44%
    10:00 +9°C° 0 mm 3 mps 752 mmHg 42%
    11:00 +10°C° 0 mm 3 mps 752 mmHg 39%
    12:00 +11°C° 0 mm 3 mps 751 mmHg 38%
    13:00 +11°C° 0 mm 3 mps 751 mmHg 38%
    14:00 +12°C° 0 mm 3 mps 751 mmHg 36%
    15:00 +11°C° 0 mm 3 mps 750 mmHg 40%
    16:00 +11°C° 0 mm 3 mps 750 mmHg 45%
    17:00 +10°C° 0 mm 3 mps 750 mmHg 49%
    18:00 +9°C° 0 mm 3 mps 750 mmHg 55%
    19:00 +7°C° 0 mm 3 mps 749 mmHg 62%
    20:00 +6°C° 0 mm 2 mps 749 mmHg 68%
    21:00 +6°C° 0 mm 2 mps 749 mmHg 69%
    22:00 +5°C° 0 mm 2 mps 749 mmHg 70%
    23:00 +5°C° 0 mm 2 mps 749 mmHg 70%

    Tomorrow, 25 March, Monday

    Time Temperature Precipitation Wind Pressure Humidity
    00:00 +5°C° 0 mm 2 mps 749 mmHg 70%
    01:00 +5°C° 0 mm 2 mps 749 mmHg 70%
    02:00 +5°C° 0 mm 2 mps 748 mmHg 71%
    03:00 +5°C° 0 mm 2 mps 748 mmHg 70%
    04:00 +5°C° 0 mm 2 mps 748 mmHg 70%
    05:00 +5°C° 0 mm 2 mps 747 mmHg 69%
    06:00 +6°C° 0 mm 2 mps 747 mmHg 65%
    07:00 +7°C° 0 mm 2 mps 747 mmHg 61%
    08:00 +8°C° 0 mm 3 mps 747 mmHg 57%
    09:00 +10°C° 0 mm 3 mps 746 mmHg 52%
    10:00 +12°C° 0 mm 4 mps 746 mmHg 47%
    11:00 +14°C° 0 mm 4 mps 746 mmHg 42%
    12:00 +14°C° 0 mm 5 mps 745 mmHg 42%
    13:00 +15°C° 0 mm 5 mps 745 mmHg 42%
    14:00 +16°C° 0 mm 6 mps 744 mmHg 43%
    15:00 +15°C° 0 mm 6 mps 744 mmHg 46%
    16:00 +14°C° 0 mm 6 mps 743 mmHg 50%
    17:00 +13°C° 0 mm 5 mps 743 mmHg 53%
    18:00 +12°C° 0 mm 5 mps 743 mmHg 58%
    19:00 +10°C° 0 mm 4 mps 743 mmHg 63%
    20:00 +8°C° 0 mm 4 mps 742 mmHg 68%
    21:00 +7°C° 0 mm 4 mps 742 mmHg 71%
    22:00 +7°C° 0 mm 4 mps 742 mmHg 74%
    23:00 +7°C° 0 mm 4 mps 742 mmHg 77%

    Day after tomorrow, 26 March, Tuesday

    Time Temperature Precipitation Wind Pressure Humidity
    00:00 +8°C° 0 mm 3 mps 742 mmHg 79%
    01:00 +8°C° 0 mm 3 mps 742 mmHg 80%
    02:00 +7°C° 0 mm 3 mps 742 mmHg 82%
    03:00 +7°C° 0 mm 3 mps 742 mmHg 81%
    04:00 +7°C° 0 mm 2 mps 742 mmHg 81%
    05:00 +7°C° 0 mm 2 mps 742 mmHg 81%
    06:00 +8°C° 0 mm 2 mps 742 mmHg 76%
    07:00 +9°C° 0 mm 2 mps 743 mmHg 72%
    08:00 +10°C° 0 mm 2 mps 743 mmHg 67%
    09:00 +12°C° 0 mm 2 mps 743 mmHg 61%
    10:00 +14°C° 0 mm 2 mps 744 mmHg 54%
    11:00 +16°C° 0 mm 2 mps 744 mmHg 48%
    12:00 +17°C° 0 mm 2 mps 744 mmHg 48%
    13:00 +17°C° 0 mm 2 mps 744 mmHg 47%
    14:00 +18°C° 0 mm 2 mps 744 mmHg 47%
    15:00 +15°C° 0.1 mm 4 mps 745 mmHg 55%
    16:00 +13°C° 0.1 mm 5 mps 745 mmHg 63%
    17:00 +11°C° 0.1 mm 7 mps 745 mmHg 70%
    18:00 +10°C° 0 mm 6 mps 746 mmHg 72%
    19:00 +9°C° 0 mm 6 mps 747 mmHg 74%
    20:00 +8°C° 0 mm 5 mps 747 mmHg 77%
    21:00 +8°C° 0.1 mm 5 mps 748 mmHg 78%
    22:00 +8°C° 0.1 mm 5 mps 748 mmHg 79%
    23:00 +7°C° 0.1 mm 5 mps 749 mmHg 80%

    27 March, Wednesday

    Time Temperature Precipitation Wind Pressure Humidity
    00:00 +7°C° 0 mm 4 mps 749 mmHg 79%
    01:00 +7°C° 0 mm 4 mps 749 mmHg 78%
    02:00 +8°C° 0 mm 3 mps 749 mmHg 77%
    03:00 +7°C° 0 mm 3 mps 749 mmHg 79%
    04:00 +6°C° 0 mm 4 mps 749 mmHg 81%
    05:00 +5°C° 0 mm 4 mps 749 mmHg 83%
    06:00 +6°C° 0 mm 4 mps 750 mmHg 77%
    07:00 +6°C° 0 mm 4 mps 750 mmHg 71%
    08:00 +8°C° 0 mm 3 mps 751 mmHg 65%
    09:00 +9°C° 0 mm 3 mps 751 mmHg 58%
    10:00 +11°C° 0 mm 3 mps 752 mmHg 50%
    11:00 +12°C° 0 mm 3 mps 752 mmHg 43%
    12:00 +12°C° 0 mm 3 mps 752 mmHg 43%
    13:00 +12°C° 0 mm 3 mps 752 mmHg 43%
    14:00 +13°C° 0 mm 3 mps 752 mmHg 43%
    15:00 +12°C° 0 mm 4 mps 752 mmHg 47%
    16:00 +11°C° 0 mm 4 mps 752 mmHg 51%
    17:00 +9°C° 0 mm 5 mps 752 mmHg 56%
    18:00 +8°C° 0 mm 4 mps 753 mmHg 59%
    19:00 +7°C° 0 mm 4 mps 753 mmHg 63%
    20:00 +6°C° 0 mm 4 mps 754 mmHg 67%
    21:00 +5°C° 0 mm 3 mps 754 mmHg 69%
    22:00 +5°C° 0 mm 3 mps 755 mmHg 72%
    23:00 +5°C° 0 mm 3 mps 755 mmHg 74%

    28 March, Thursday

    Time Temperature Precipitation Wind Pressure Humidity
    00:00 +4°C° 0 mm 3 mps 755 mmHg 74%
    01:00 +4°C° 0 mm 3 mps 756 mmHg 74%
    02:00 +4°C° 0 mm 4 mps 756 mmHg 74%
    03:00 +4°C° 0 mm 4 mps 756 mmHg 73%
    04:00 +3°C° 0 mm 4 mps 756 mmHg 72%
    05:00 +3°C° 0 mm 4 mps 756 mmHg 70%
    06:00 +4°C° 0 mm 4 mps 756 mmHg 65%
    07:00 +5°C° 0 mm 4 mps 756 mmHg 60%
    08:00 +5°C° 0 mm 5 mps 757 mmHg 55%
    09:00 +6°C° 0 mm 5 mps 757 mmHg 52%
    10:00 +7°C° 0 mm 5 mps 757 mmHg 48%
    11:00 +8°C° 0 mm 5 mps 757 mmHg 45%
    12:00 +8°C° 0 mm 5 mps 757 mmHg 45%
    13:00 +8°C° 0 mm 6 mps 757 mmHg 45%
    14:00 +8°C° 0 mm 6 mps 757 mmHg 45%
    15:00 +8°C° 0 mm 6 mps 756 mmHg 47%
    16:00 +6°C° 0 mm 7 mps 756 mmHg 49%
    17:00 +5°C° 0 mm 7 mps 756 mmHg 51%
    18:00 +4°C° 0 mm 6 mps 756 mmHg 55%
    19:00 +3°C° 0 mm 6 mps 757 mmHg 60%
    20:00 +2°C° 0 mm 6 mps 757 mmHg 64%
    21:00 +2°C° 0 mm 5 mps 757 mmHg 64%
    22:00 +2°C° 0 mm 5 mps 757 mmHg 64%
    23:00 +1°C° 0 mm 5 mps 757 mmHg 64%

    29 March, Friday

    Time Temperature Precipitation Wind Pressure Humidity
    00:00 +1°C° 0 mm 5 mps 757 mmHg 62%
    01:00 +1°C° 0 mm 5 mps 757 mmHg 61%
    02:00 +1°C° 0 mm 6 mps 757 mmHg 59%
    03:00 -1°C° 0 mm 6 mps 757 mmHg 61%
    04:00 -1°C° 0 mm 6 mps 757 mmHg 63%
    05:00 -1°C° 0 mm 6 mps 757 mmHg 65%
    06:00 +1°C° 0 mm 6 mps 757 mmHg 62%
    07:00 +2°C° 0 mm 7 mps 757 mmHg 60%
    08:00 +3°C° 0 mm 7 mps 757 mmHg 57%
    09:00 +4°C° 0 mm 7 mps 757 mmHg 54%
    10:00 +5°C° 0 mm 8 mps 757 mmHg 52%
    11:00 +5°C° 0 mm 8 mps 757 mmHg 49%
    12:00 +6°C° 0 mm 8 mps 757 mmHg 49%
    13:00 +6°C° 0 mm 8 mps 757 mmHg 49%
    14:00 +6°C° 0 mm 8 mps 756 mmHg 49%
    15:00 +5°C° 0 mm 8 mps 756 mmHg 50%
    16:00 +5°C° 0 mm 8 mps 756 mmHg 51%
    17:00 +4°C° 0 mm 8 mps 755 mmHg 52%
    18:00 +3°C° 0 mm 7 mps 755 mmHg 57%
    19:00 +2°C° 0 mm 7 mps 755 mmHg 61%
    20:00 +1°C° 0 mm 6 mps 755 mmHg 66%
    21:00 +1°C° 0 mm 6 mps 755 mmHg 67%
    22:00 +1°C° 0 mm 5 mps 755 mmHg 68%
    23:00 0°C° 0 mm 5 mps 755 mmHg 68%
    Show more